Flag for Finland Weather past 2 weeks in Lappeenranta, Finland

Now
77 °F

Sunny.


Feels Like: 79 °F
Forecast: 68 / 82 °F
Wind: 3 mph from Southwest

Location: Lappeenranta

Current Time: Jul 28, 2014 at 9:53:38 PM

Latest Report: Jul 28, 2014 at 8:50 PM


Visibility: 10 mi

Pressure: 29.92 "Hg

Humidity: 54%

Dew point: 59 °F

Location of LappeenrantaLocation

Historic Weather in Lappeenranta — Graph

°F

Lappeenranta temperature yesterday

Maximum temperature yesterday: 86 °F (at 2:20 PM)
Minimum temperature yesterday: 66 °F (at 11:50 PM)
Average temperature yesterday: 80 °F

Past Weeks' High & Low Weather Summary

 TemperatureHumidityPressure
High88 °F (Jul 26, 2:50 PM)100% (Jul 15, 4:50 AM)30.21 "Hg (Jul 15, 4:50 AM)
Low55 °F (Jul 17, 4:20 AM)27% (Jul 27, 2:20 PM)29.92 "Hg (Jul 13, 8:20 PM)
Average71 °F66%30.08 "Hg
* Reported Jul 13 8:20 PM — Jul 28 8:20 PM, Lappeenranta, Weather by CustomWeather, © 2014

Note: Actual official high and low records may vary slightly from our data, if they occured in-between our weather recording intervals... More about our weather records

Advertising

Lappeenranta weather history for previous 24 hours

 ConditionsComfort  
Time TempWeatherWind HumidityBarometerVisibility
8:20 PM
Jul 28
77 °FSunny.3 mph51%29.92 "Hg10 mi
7:50 PM79 °FPassing clouds.6 mph48%29.92 "HgN/A
7:20 PM79 °FPassing clouds.6 mph45%29.92 "HgN/A
6:50 PM81 °FPassing clouds.7 mph42%29.92 "HgN/A
6:20 PM84 °FPassing clouds.10 mph37%29.92 "HgN/A
5:50 PM84 °FPassing clouds.13 mph37%29.92 "HgN/A
5:20 PM84 °FPassing clouds.12 mph37%29.92 "HgN/A
4:50 PM84 °FPassing clouds.14 mph35%29.92 "HgN/A
4:20 PM84 °FPassing clouds.14 mph35%29.92 "HgN/A
3:50 PM84 °FPassing clouds.13 mph37%29.95 "HgN/A
3:20 PM84 °FPassing clouds.9 mph37%29.95 "HgN/A
2:50 PM84 °FPassing clouds.10 mph43%29.95 "HgN/A
2:20 PM82 °FPassing clouds.7 mph42%29.98 "HgN/A
1:50 PM81 °FPassing clouds.7 mph48%29.98 "HgN/A
1:20 PM82 °FPassing clouds.9 mph45%29.98 "HgN/A
12:50 PM82 °FPassing clouds.9 mph45%30.01 "HgN/A
12:20 PM81 °FSunny.7 mph48%30.01 "Hg10 mi
11:50 AM81 °FPassing clouds.8 mph48%30.01 "HgN/A
11:20 AM82 °FSunny.6 mph48%30.01 "Hg10 mi
10:50 AM81 °FPassing clouds.6 mph51%30.01 "HgN/A
10:20 AM81 °FPassing clouds.6 mph51%30.01 "HgN/A
9:50 AM79 °FPassing clouds.6 mph58%30.01 "HgN/A
9:20 AM77 °FSunny.2 mph69%30.01 "Hg10 mi
8:50 AM75 °FSunny.3 mph78%30.04 "Hg10 mi
8:20 AM73 °FPassing clouds.5 mph83%30.04 "HgN/A
7:50 AM72 °FSunny.3 mph83%30.04 "Hg10 mi
7:20 AM70 °FSunny.1 mph88%30.04 "Hg10 mi
6:50 AM66 °FSunny.1 mph94%30.04 "Hg10 mi
6:20 AM64 °FSunny.1 mph94%30.04 "Hg10 mi
5:50 AM64 °FSunny.1 mph88%30.04 "Hg10 mi
5:20 AM64 °FClear.1 mph88%30.04 "Hg10 mi
4:50 AM63 °FClear.No wind88%30.04 "Hg10 mi
4:20 AM61 °FClear.No wind94%30.04 "Hg10 mi
3:50 AM61 °FClear.No wind94%30.07 "Hg10 mi
3:20 AM63 °FClear.1 mph94%30.07 "Hg10 mi
2:50 AM64 °FClear.1 mph88%30.07 "Hg10 mi
1:50 AM66 °FClear.3 mph83%30.07 "Hg10 mi
1:20 AM68 °FClear.5 mph73%30.07 "Hg10 mi
12:50 AM66 °FClear.3 mph78%30.07 "Hg10 mi
12:20 AM66 °FClear.3 mph73%30.07 "Hg10 mi
11:50 PM
Jul 27
66 °FClear.3 mph73%30.07 "Hg10 mi
11:20 PM70 °FClear.5 mph64%30.07 "Hg10 mi
10:50 PM72 °FSunny.5 mph61%30.07 "Hg10 mi
10:20 PM73 °FSunny.5 mph57%30.07 "Hg10 mi
9:50 PM75 °FSunny.6 mph54%30.07 "Hg10 mi
9:20 PM77 °FSunny.5 mph51%30.07 "Hg10 mi
Weather by CustomWeather, © 2014

See weather overviewHow to use our weather pages